DW4738 Weather Reports


Display with metric or nautical units.
time (UTC)temp
F
wind
direction
speed
MPH
gust
MPH
rain 1hr
in
rain 24hr
in
rain mn
in
humidity
%
barometer
mb
20260503183021 59 180 2.0 5.0 0.00 0.01 0.01 71 1011.6
20260503180042 58 180 1.0 7.0 0.00 0.01 0.01 76 1011.5
20260503173042 57 315 3.0 10.0 0.00 0.01 0.01 75 1011.5
20260503053021 55 0.0 5.0 0.00 0.00 0.00 84 1010.3
20260503050121 55 315 1.0 4.0 0.00 0.00 0.00 83 1010.3
20260503043021 56 315 2.0 8.0 0.00 0.00 0.00 83 1010.1
20260503040016 56 315 2.0 6.0 0.00 0.00 0.00 82 1009.5
20260503033021 57 0.0 1.0 0.00 0.00 0.00 82 1009.2
20260503030021 58 0.0 1.0 0.00 0.00 0.00 80 1009.0
20260503023016 60 0.0 2.0 0.00 0.00 0.00 77 1008.9
20260503020021 61 0.0 4.0 0.00 0.00 0.00 76 1008.8
20260503013020 62 202 1.0 4.0 0.00 0.00 0.00 74 1008.8
20260503010020 64 180 1.0 4.0 0.00 0.00 0.00 71 1008.8
20260503003037 66 180 1.0 5.0 0.00 0.00 0.00 69 1008.8
20260503000020 69 180 1.0 4.0 0.00 0.00 0.00 65 1008.9
20260502233021 67 202 1.0 5.0 0.00 0.00 0.00 67 1009.2
20260502230020 67 225 1.0 5.0 0.00 0.00 0.00 68 1009.7
20260502223020 66 202 2.0 5.0 0.00 0.00 0.00 71 1010.3
20260502220020 64 180 2.0 5.0 0.00 0.00 0.00 75 1011.0
20260502213020 62 202 1.0 5.0 0.00 0.00 0.00 78 1011.3
20260502210016 61 0.0 2.0 0.00 0.00 0.00 80 1011.5
20260502203020 60 202 1.0 3.0 0.00 0.00 0.00 82 1011.9
20260502200041 60 180 1.0 3.0 0.00 0.00 0.00 82 1012.3
20260502193020 59 0.0 3.0 0.00 0.00 0.00 83 1012.4
20260502190016 57 0.0 3.0 0.00 0.00 0.00 86 1012.5